TimeEDT,TemperatureF,Dew PointF,Humidity,Sea Level PressureIn,VisibilityMPH,Wind Direction,Wind SpeedMPH,Gust SpeedMPH,PrecipitationIn,Events,Conditions,WindDirDegrees,DateUTC
1:53 AM,52.0,51.1,97,30.13,10.0,Calm,Calm,-,N/A,,Clear,0,2013-08-16 05:53:00
2:53 AM,50.0,48.9,96,30.13,7.0,Calm,Calm,-,N/A,,Clear,0,2013-08-16 06:53:00
3:53 AM,52.0,51.1,97,30.13,9.0,Calm,Calm,-,N/A,,Clear,0,2013-08-16 07:53:00
4:53 AM,53.1,51.1,93,30.14,9.0,Calm,Calm,-,N/A,,Clear,0,2013-08-16 08:53:00
5:53 AM,52.0,50.0,93,30.14,8.0,Calm,Calm,-,N/A,,Clear,0,2013-08-16 09:53:00
6:53 AM,50.0,48.0,93,30.14,7.0,Calm,Calm,-,N/A,,Clear,0,2013-08-16 10:53:00
7:53 AM,53.1,52.0,96,30.15,5.0,Calm,Calm,-,N/A,,Clear,0,2013-08-16 11:53:00
8:53 AM,61.0,55.9,83,30.16,10.0,Calm,Calm,-,N/A,,Clear,0,2013-08-16 12:53:00
9:53 AM,66.0,57.0,73,30.16,10.0,Calm,Calm,-,N/A,,Clear,0,2013-08-16 13:53:00
10:53 AM,71.1,57.9,63,30.17,10.0,Calm,Calm,-,N/A,,Clear,0,2013-08-16 14:53:00
11:53 AM,73.0,55.9,55,30.17,10.0,NE,5.8,-,N/A,,Partly Cloudy,50,2013-08-16 15:53:00
12:53 PM,73.0,55.9,55,30.17,10.0,NE,4.6,-,N/A,,Scattered Clouds,40,2013-08-16 16:53:00
1:53 PM,75.0,55.9,51,30.16,10.0,Variable,6.9,-,N/A,,Clear,0,2013-08-16 17:53:00
2:53 PM,75.0,55.0,50,30.15,10.0,East,5.8,-,N/A,,Clear,90,2013-08-16 18:53:00
3:53 PM,75.0,55.9,51,30.14,10.0,ENE,9.2,-,N/A,,Partly Cloudy,60,2013-08-16 19:53:00
4:53 PM,75.9,55.9,50,30.14,10.0,NE,5.8,-,N/A,,Clear,40,2013-08-16 20:53:00
5:53 PM,75.0,55.9,51,30.14,10.0,NE,6.9,-,N/A,,Clear,50,2013-08-16 21:53:00
6:53 PM,73.0,57.0,57,30.14,10.0,NNE,5.8,-,N/A,,Clear,30,2013-08-16 22:53:00
7:53 PM,66.9,60.1,79,30.15,10.0,North,3.5,-,N/A,,Clear,10,2013-08-16 23:53:00
8:53 PM,61.0,57.0,87,30.15,10.0,North,3.5,-,N/A,,Clear,10,2013-08-17 00:53:00
9:53 PM,60.1,57.0,90,30.17,10.0,Calm,Calm,-,N/A,,Clear,0,2013-08-17 01:53:00
10:53 PM,57.0,55.0,93,30.17,10.0,Calm,Calm,-,N/A,,Clear,0,2013-08-17 02:53:00
11:53 PM,55.9,54.0,93,30.17,8.0,Calm,Calm,-,N/A,,Clear,0,2013-08-17 03:53:00